PD0PJH-13 Weather Reports


Display with metric or nautical units.
time (UTC)temp
F
wind
direction
speed
MPH
gust
MPH
rain 1hr
in
rain 24hr
in
rain mn
in
humidity
%
barometer
mb
20260506134525 56 200 3.0 10.0 0.00 0.06 0.00 74 1009.3
20260506133035 58 259 6.0 13.0 0.00 0.06 0.00 69 1009.3
20260506131523 59 254 7.0 12.0 0.00 0.06 0.00 70 1009.1
20260506130028 59 257 4.0 11.0 0.00 0.06 0.00 73 1009.1
20260506124510 58 219 7.0 12.0 0.00 0.06 0.00 73 1009.3
20260506123017 58 238 7.0 12.0 0.00 0.07 0.00 74 1009.3
20260506121522 58 210 5.0 15.0 0.00 0.11 0.00 77 1009.3
20260506120026 57 192 8.0 14.0 0.00 0.19 0.00 77 1009.3
20260506114528 57 213 9.0 13.0 0.00 0.19 0.00 79 1009.4
20260506113015 56 196 7.0 14.0 0.00 0.19 0.00 79 1009.5
20260506111520 56 223 6.0 13.0 0.00 0.19 0.00 81 1009.5
20260506110026 56 221 8.0 13.0 0.00 0.19 0.00 79 1009.7
20260506104551 55 217 6.0 12.0 0.00 0.19 0.00 80 1009.7
20260506103031 55 219 7.0 12.0 0.00 0.19 0.00 81 1009.7
20260506101518 54 220 8.0 13.0 0.00 0.19 0.00 83 1009.8
20260506100004 54 227 8.0 12.0 0.00 0.19 0.00 84 1009.6
20260506094504 53 222 7.0 14.0 0.00 0.19 0.00 86 1009.6
20260506093010 53 238 4.0 12.0 0.00 0.19 0.00 88 1009.6
20260506091516 53 238 6.0 12.0 0.00 0.19 0.00 88 1009.4
20260506090020 53 232 5.0 10.0 0.00 0.19 0.00 88 1009.3
20260506084506 52 229 8.0 12.0 0.00 0.19 0.00 87 1009.1
20260506083018 52 221 6.0 10.0 0.00 0.19 0.00 86 1009.1
20260506081513 52 236 5.0 9.0 0.00 0.19 0.00 87 1008.9
20260506073005 51 230 2.0 8.0 0.00 0.19 0.00 88 1008.8
20260506071509 51 247 4.0 7.0 0.00 0.19 0.00 88 1008.6
20260506061508 50 250 4.0 7.0 0.00 0.20 0.00 90 1008.1
20260506044513 50 285 2.0 5.0 0.00 0.22 0.00 90 1007.5
20260506043019 50 245 3.0 5.0 0.00 0.22 0.00 90 1007.6
20260506041524 50 250 2.0 5.0 0.00 0.22 0.00 90 1007.5
20260506040040 50 243 1.0 7.0 0.00 0.22 0.00 90 1007.5
20260506034513 50 246 2.0 5.0 0.00 0.22 0.00 89 1007.5
20260506033021 50 258 4.0 7.0 0.00 0.22 0.00 89 1007.5
20260506031524 50 248 2.0 7.0 0.00 0.22 0.00 89 1007.7
20260506024536 51 243 2.0 4.0 0.00 0.22 0.00 89 1007.8
20260506023012 51 260 3.0 6.0 0.00 0.22 0.00 89 1007.7
20260506021538 51 251 3.0 6.0 0.00 0.22 0.00 88 1007.7
20260506020024 51 256 3.0 7.0 0.00 0.22 0.00 88 1007.7
20260506014527 51 280 2.0 4.0 0.00 0.22 0.00 88 1007.8
20260506013027 52 243 1.0 4.0 0.00 0.22 0.00 88 1008.0
20260506011523 52 271 1.0 4.0 0.00 0.22 0.00 88 1008.1
20260506010021 52 255 2.0 4.0 0.00 0.22 0.00 87 1008.3
20260506004505 52 213 2.0 5.0 0.00 0.23 0.00 87 1008.4
20260506003007 52 204 3.0 5.0 0.00 0.23 0.00 87 1008.6
20260506001514 52 204 2.0 6.0 0.00 0.23 0.00 87 1008.7
20260506000019 52 204 2.0 4.0 0.00 0.24 0.00 87 1008.8
20260505234522 52 204 1.0 3.0 0.00 0.24 0.00 88 1008.9
20260505233008 52 204 0.0 2.0 0.00 0.24 0.00 88 1009.0
20260505231522 52 204 1.0 4.0 0.00 0.24 0.00 88 1009.1
20260505230017 52 204 1.0 5.0 0.00 0.25 0.00 88 1009.2
20260505224528 52 188 3.0 7.0 0.00 0.26 0.00 88 1009.2
20260505223027 51 203 2.0 6.0 0.00 0.26 0.00 88 1009.4
20260505221508 51 203 4.0 8.0 0.00 0.27 0.00 88 1009.3
20260505220012 51 221 4.0 7.0 0.00 0.27 0.00 88 1009.4
20260505214518 51 244 2.0 6.0 0.00 0.27 0.27 87 1009.3
20260505213027 52 226 4.0 7.0 0.00 0.27 0.27 87 1009.5
20260505211538 52 213 3.0 6.0 0.00 0.27 0.27 86 1009.8
20260505210013 52 224 2.0 4.0 0.00 0.27 0.27 87 1009.8
20260505204518 51 205 4.0 6.0 0.00 0.27 0.27 88 1009.8
20260505203021 50 232 1.0 2.0 0.00 0.27 0.27 90 1010.0
20260505201523 50 232 0.0 1.0 0.00 0.27 0.27 89 1010.1
20260505200025 51 232 0.0 0.0 0.00 0.27 0.27 88 1009.9
20260505194517 51 232 0.0 1.0 0.00 0.27 0.27 86 1009.5
20260505193020 52 232 1.0 3.0 0.00 0.27 0.27 86 1009.3
20260505191524 52 229 3.0 5.0 0.00 0.29 0.27 87 1009.2
20260505190023 53 231 1.0 4.0 0.00 0.34 0.27 88 1008.8
20260505184534 54 285 1.0 3.0 0.00 0.37 0.27 87 1008.8
20260505183016 54 285 0.0 2.0 0.01 0.37 0.27 87 1008.5
20260505181521 54 285 0.0 2.0 0.06 0.37 0.27 87 1008.4
20260505180027 54 285 0.0 3.0 0.06 0.37 0.27 86 1008.3
20260505174528 54 288 0.0 2.0 0.06 0.37 0.27 86 1008.6
20260505173016 54 288 1.0 9.0 0.05 0.36 0.26 83 1008.8
20260505171517 57 301 6.0 17.0 0.00 0.31 0.21 77 1008.8
20260505170004 61 233 2.0 6.0 0.00 0.31 0.21 69 1008.3
20260505164507 61 235 4.0 7.0 0.00 0.31 0.21 65 1008.1
20260505163010 63 245 5.0 12.0 0.00 0.31 0.21 62 1008.1
20260505161516 64 235 8.0 14.0 0.00 0.31 0.21 61 1007.9
20260505153009 64 243 7.0 12.0 0.00 0.31 0.21 66 1008.0
20260505151517 64 236 6.0 10.0 0.00 0.31 0.21 63 1008.2